sat.trackr.live / text

‹ back to catalog

STARLINK-31081

NORAD 58632 · 2023-203Q

PAYLOAD ACTIVE UNKNOWN

§ Identity

Operator
Country
US
Launch date
2023-12-23
Launch site
AFETR
Launch vehicle
Mass (kg)
RCS (m²)

Purposes: comms

External: N2YO · Heavens-Above · Gunter

§ Orbital elements

Epoch: 2026-05-24T21:10:36.482880Z

Period
94.27 min
Inclination
43.0008°
Eccentricity
0.0001420
Mean motion
15.27588462 rev/d
Perigee alt
482.0 km
Apogee alt
484.0 km
Semi-major
6,861.2 km
B*
4.3564e-4
RAAN
0.2706°
Arg perigee
273.3868°
Mean anomaly
86.6822°
Rev number
13,640

§ Raw data

STARLINK-310811 58632U 23203Q   26144.88236670  .00011748  00000+0  43564-3 0  99962 58632  43.0008   0.2706 0001420 273.3868  86.6822 15.27588462136404

JSON: /api/v1/satellites/58632 · /tle

For live sub-satellite position, see the globe view (requires WebGL).

§ Visibility from observer

Set your observer location to see the next 7 days of passes ≥ 10°. The values pass through the URL so the page stays shareable.

No JS? Fill the form by hand. The geolocation button needs JavaScript.